Year,Month,Day,Hour,Minute,Value (Times are PST for windspeed in km/hr)
2020,02,09,00,00,1.40
2020,02,09,00,01,5.60
2020,02,09,00,02,9.00
2020,02,09,00,03,4.50
2020,02,09,00,04,4.80
2020,02,09,00,05,5.20
2020,02,09,00,06,10.20
2020,02,09,00,07,1.70
2020,02,09,00,08,4.40
2020,02,09,00,09,4.30
2020,02,09,00,10,7.30
2020,02,09,00,11,3.80
2020,02,09,00,12,7.10
2020,02,09,00,13,4.00
2020,02,09,00,14,3.30
2020,02,09,00,15,4.40
2020,02,09,00,16,2.70
2020,02,09,00,17,7.60
2020,02,09,00,18,4.70
2020,02,09,00,19,0.20
2020,02,09,00,20,4.80
2020,02,09,00,21,6.50
2020,02,09,00,22,5.80
2020,02,09,00,23,1.70
2020,02,09,00,24,4.10
2020,02,09,00,25,6.30
2020,02,09,00,26,3.90
2020,02,09,00,27,2.70
2020,02,09,00,28,1.80
2020,02,09,00,29,2.70
2020,02,09,00,30,0.80
2020,02,09,00,31,3.10
2020,02,09,00,32,2.50
2020,02,09,00,33,4.80
2020,02,09,00,34,2.70
2020,02,09,00,35,1.20
2020,02,09,00,36,2.70
2020,02,09,00,37,1.90
2020,02,09,00,38,5.10
2020,02,09,00,39,3.30
2020,02,09,00,40,0.20
2020,02,09,00,41,2.90
2020,02,09,00,42,7.60
2020,02,09,00,43,8.30
2020,02,09,00,44,1.30
2020,02,09,00,45,0.60
2020,02,09,00,46,1.00
2020,02,09,00,47,0.50
2020,02,09,00,48,1.10
2020,02,09,00,49,0.50
2020,02,09,00,50,2.40
2020,02,09,00,51,1.20
2020,02,09,00,52,3.30
2020,02,09,00,53,2.20
2020,02,09,00,54,0.00
2020,02,09,00,55,2.80
2020,02,09,00,56,1.00
2020,02,09,00,57,0.60
2020,02,09,00,58,0.20
2020,02,09,00,59,1.40
2020,02,09,01,00,1.70
2020,02,09,01,01,0.20
2020,02,09,01,02,0.50
2020,02,09,01,03,3.10
2020,02,09,01,04,2.90
2020,02,09,01,05,1.90
2020,02,09,01,06,8.10
2020,02,09,01,07,5.40
2020,02,09,01,08,3.80
2020,02,09,01,09,5.10
2020,02,09,01,10,0.60
2020,02,09,01,11,2.40
2020,02,09,01,12,5.30
2020,02,09,01,13,3.80
2020,02,09,01,14,3.80
2020,02,09,01,15,4.00
2020,02,09,01,16,2.50
2020,02,09,01,17,8.50
2020,02,09,01,18,5.30
2020,02,09,01,19,1.40
2020,02,09,01,20,0.80
2020,02,09,01,21,0.40
2020,02,09,01,22,1.60
2020,02,09,01,23,3.90
2020,02,09,01,24,0.80
2020,02,09,01,25,1.80
2020,02,09,01,26,2.60
2020,02,09,01,27,0.00
2020,02,09,01,28,1.40
2020,02,09,01,29,0.40
2020,02,09,01,30,0.60
2020,02,09,01,31,0.00
2020,02,09,01,32,1.10
2020,02,09,01,33,0.20
2020,02,09,01,34,0.40
2020,02,09,01,35,0.20
2020,02,09,01,36,0.20
2020,02,09,01,37,0.00
2020,02,09,01,38,0.00
2020,02,09,01,39,0.00
2020,02,09,01,40,0.00
2020,02,09,01,41,0.00
2020,02,09,01,42,0.00
2020,02,09,01,43,0.00
2020,02,09,01,44,0.00
2020,02,09,01,45,0.00
2020,02,09,01,46,0.00
2020,02,09,01,47,0.10
2020,02,09,01,48,0.00
2020,02,09,01,49,0.00
2020,02,09,01,50,0.10
2020,02,09,01,51,0.00
2020,02,09,01,52,0.00
2020,02,09,01,53,0.00
2020,02,09,01,54,0.00
2020,02,09,01,55,0.00
2020,02,09,01,56,0.00
2020,02,09,01,57,0.00
2020,02,09,01,58,0.00
2020,02,09,01,59,0.00
2020,02,09,02,00,0.00
2020,02,09,02,01,0.00
2020,02,09,02,02,0.00
2020,02,09,02,03,0.00
2020,02,09,02,04,0.00
2020,02,09,02,05,0.00
2020,02,09,02,06,0.00
2020,02,09,02,07,0.00
2020,02,09,02,08,0.00
2020,02,09,02,09,0.00
2020,02,09,02,10,0.00
2020,02,09,02,11,0.00
2020,02,09,02,12,0.00
2020,02,09,02,13,0.00
2020,02,09,02,14,0.00
2020,02,09,02,15,0.00
2020,02,09,02,16,0.00
2020,02,09,02,17,0.00
2020,02,09,02,18,0.00
2020,02,09,02,19,0.00
2020,02,09,02,20,0.00
2020,02,09,02,21,0.00
2020,02,09,02,22,0.00
2020,02,09,02,23,0.00
2020,02,09,02,24,0.00
2020,02,09,02,25,0.00
2020,02,09,02,26,0.00
2020,02,09,02,27,0.00
2020,02,09,02,28,0.00
2020,02,09,02,29,1.00
2020,02,09,02,30,0.60
2020,02,09,02,31,2.40
2020,02,09,02,32,0.40
2020,02,09,02,33,0.00
2020,02,09,02,34,0.00
2020,02,09,02,35,0.00
2020,02,09,02,36,1.00
2020,02,09,02,37,2.60
2020,02,09,02,38,3.40
2020,02,09,02,39,4.30
2020,02,09,02,40,3.40
2020,02,09,02,41,1.90
2020,02,09,02,42,0.10
2020,02,09,02,43,0.10
2020,02,09,02,44,0.00
2020,02,09,02,45,0.00
2020,02,09,02,46,0.00
2020,02,09,02,47,1.00
2020,02,09,02,48,0.00
2020,02,09,02,49,1.40
2020,02,09,02,50,0.10
2020,02,09,02,51,0.10
2020,02,09,02,52,0.00
2020,02,09,02,53,0.00
2020,02,09,02,54,0.00
2020,02,09,02,55,1.80
2020,02,09,02,56,1.90
2020,02,09,02,57,0.70
2020,02,09,02,58,1.00
2020,02,09,02,59,0.00
2020,02,09,03,00,0.10
2020,02,09,03,01,1.10
2020,02,09,03,02,1.10
2020,02,09,03,03,1.10
2020,02,09,03,04,2.00
2020,02,09,03,05,1.00
2020,02,09,03,06,1.90
2020,02,09,03,07,1.10
2020,02,09,03,08,0.20
2020,02,09,03,09,0.00
2020,02,09,03,10,0.00
2020,02,09,03,11,0.60
2020,02,09,03,12,0.20
2020,02,09,03,13,0.10
2020,02,09,03,14,1.40
2020,02,09,03,15,0.30
2020,02,09,03,16,0.10
2020,02,09,03,17,0.00
2020,02,09,03,18,0.00
2020,02,09,03,19,0.10
2020,02,09,03,20,0.00
2020,02,09,03,21,0.00
2020,02,09,03,22,0.00
2020,02,09,03,23,0.00
2020,02,09,03,24,0.00
2020,02,09,03,25,0.00
2020,02,09,03,26,0.00
2020,02,09,03,27,0.00
2020,02,09,03,28,0.00
2020,02,09,03,29,0.10
2020,02,09,03,30,0.70
2020,02,09,03,31,0.50
2020,02,09,03,32,0.40
2020,02,09,03,33,0.80
2020,02,09,03,34,1.00
2020,02,09,03,35,1.10
2020,02,09,03,36,1.50
2020,02,09,03,37,1.50
2020,02,09,03,38,1.40
2020,02,09,03,39,0.80
2020,02,09,03,40,0.50
2020,02,09,03,41,0.20
2020,02,09,03,42,1.90
2020,02,09,03,43,0.20
2020,02,09,03,44,1.80
2020,02,09,03,45,2.40
2020,02,09,03,46,0.00
2020,02,09,03,47,1.20
2020,02,09,03,48,0.10
2020,02,09,03,49,0.10
2020,02,09,03,50,0.20
2020,02,09,03,51,0.60
2020,02,09,03,52,2.30
2020,02,09,03,53,3.60
2020,02,09,03,54,3.10
2020,02,09,03,55,2.40
2020,02,09,03,56,2.70
2020,02,09,03,57,2.60
2020,02,09,03,58,2.80
2020,02,09,03,59,3.60
2020,02,09,04,00,4.30
2020,02,09,04,01,4.20
2020,02,09,04,02,4.40
2020,02,09,04,03,3.90
2020,02,09,04,04,3.80
2020,02,09,04,05,3.90
2020,02,09,04,06,3.50
2020,02,09,04,07,2.30
2020,02,09,04,08,0.80
2020,02,09,04,09,2.80
2020,02,09,04,10,3.90
2020,02,09,04,11,4.30
2020,02,09,04,12,1.80
2020,02,09,04,13,2.50
2020,02,09,04,14,4.80
2020,02,09,04,15,5.30
2020,02,09,04,16,2.20
2020,02,09,04,17,3.70
2020,02,09,04,18,4.80
2020,02,09,04,19,4.50
2020,02,09,04,20,5.70
2020,02,09,04,21,3.40
2020,02,09,04,22,3.20
2020,02,09,04,23,4.40
2020,02,09,04,24,3.50
2020,02,09,04,25,2.40
2020,02,09,04,26,3.00
2020,02,09,04,27,2.10
2020,02,09,04,28,3.40
2020,02,09,04,29,3.90
2020,02,09,04,30,2.20
2020,02,09,04,31,3.90
2020,02,09,04,32,2.80
2020,02,09,04,33,3.20
2020,02,09,04,34,4.20
2020,02,09,04,35,5.10
2020,02,09,04,36,4.70
2020,02,09,04,37,4.30
2020,02,09,04,38,5.40
2020,02,09,04,39,5.20
2020,02,09,04,40,6.70
2020,02,09,04,41,3.10
2020,02,09,04,42,1.80
2020,02,09,04,43,2.70
2020,02,09,04,44,3.10
2020,02,09,04,45,3.30
2020,02,09,04,46,4.30
2020,02,09,04,47,5.60
2020,02,09,04,48,6.00
2020,02,09,04,49,5.00
2020,02,09,04,50,6.10
2020,02,09,04,51,3.60
2020,02,09,04,52,3.70
2020,02,09,04,53,3.90
2020,02,09,04,54,4.20
2020,02,09,04,55,3.40
2020,02,09,04,56,3.50
2020,02,09,04,57,5.30
2020,02,09,04,58,2.90
2020,02,09,04,59,4.20
2020,02,09,05,00,2.90
2020,02,09,05,01,3.30
2020,02,09,05,02,5.90
2020,02,09,05,03,4.60
2020,02,09,05,04,4.10
2020,02,09,05,05,7.40
2020,02,09,05,06,5.60
2020,02,09,05,07,4.20
2020,02,09,05,08,5.30
2020,02,09,05,09,5.40
2020,02,09,05,10,4.80
2020,02,09,05,11,3.90
2020,02,09,05,12,4.20
2020,02,09,05,13,6.70
2020,02,09,05,14,6.00
2020,02,09,05,15,6.50
2020,02,09,05,16,6.70
2020,02,09,05,17,9.50
2020,02,09,05,18,12.10
2020,02,09,05,19,6.00
2020,02,09,05,20,3.70
2020,02,09,05,21,0.00
2020,02,09,05,22,0.00
2020,02,09,05,23,0.00
2020,02,09,05,24,0.00
2020,02,09,05,25,0.00
2020,02,09,05,26,0.00
2020,02,09,05,27,0.00
2020,02,09,05,28,0.00
2020,02,09,05,29,0.00
2020,02,09,05,30,0.00
2020,02,09,09,44,0.00
2020,02,09,09,45,0.00
2020,02,09,09,46,1.00
2020,02,09,09,47,1.60
2020,02,09,09,48,0.00
2020,02,09,09,49,0.00
2020,02,09,09,50,0.00
2020,02,09,09,51,0.00
2020,02,09,09,52,0.00
2020,02,09,09,53,0.00
2020,02,09,09,54,0.10
2020,02,09,09,55,2.60
2020,02,09,09,56,3.10
2020,02,09,09,57,0.20
2020,02,09,09,58,0.60
2020,02,09,09,59,2.80
2020,02,09,10,00,0.10
2020,02,09,10,01,0.00
2020,02,09,10,02,0.00
2020,02,09,10,03,0.20
2020,02,09,10,04,1.40
2020,02,09,10,05,1.80
2020,02,09,10,06,0.00
2020,02,09,10,07,0.80
2020,02,09,10,08,0.00
2020,02,09,10,09,0.10
2020,02,09,10,10,0.00
2020,02,09,10,11,0.30
2020,02,09,10,12,0.50
2020,02,09,10,13,1.00
2020,02,09,10,14,0.30
2020,02,09,10,15,0.60
2020,02,09,10,16,0.00
2020,02,09,10,17,0.10
2020,02,09,10,18,0.10
2020,02,09,10,19,0.20
2020,02,09,10,20,0.40
2020,02,09,10,21,0.00
2020,02,09,10,22,0.00
2020,02,09,10,23,0.10
2020,02,09,10,24,0.00
2020,02,09,10,25,0.00
2020,02,09,10,26,0.00
2020,02,09,10,27,0.00
2020,02,09,10,28,0.00
2020,02,09,10,29,0.00
2020,02,09,10,30,0.00
2020,02,09,10,31,0.00
2020,02,09,10,32,0.00
2020,02,09,10,33,0.00
2020,02,09,10,34,0.00
2020,02,09,10,35,0.00
2020,02,09,10,36,0.00
2020,02,09,10,37,0.10
2020,02,09,10,38,0.30
2020,02,09,10,39,0.10
2020,02,09,10,40,0.00
2020,02,09,10,41,0.00
2020,02,09,10,42,0.00
2020,02,09,10,43,0.00
2020,02,09,10,44,0.00
2020,02,09,10,45,0.00
2020,02,09,10,46,1.50
2020,02,09,10,47,2.10
2020,02,09,10,48,1.30
2020,02,09,10,49,0.40
2020,02,09,10,50,1.90
2020,02,09,10,51,1.70
2020,02,09,10,52,0.70
2020,02,09,10,53,6.00
2020,02,09,10,54,7.90
2020,02,09,10,55,5.70
2020,02,09,10,56,4.30
2020,02,09,10,57,1.50
2020,02,09,10,58,0.80
2020,02,09,10,59,1.00
2020,02,09,11,00,3.90
2020,02,09,11,01,4.60
2020,02,09,11,02,1.40
2020,02,09,11,03,1.00
2020,02,09,11,04,2.00
2020,02,09,11,05,0.60
2020,02,09,11,06,0.60
2020,02,09,11,07,0.20
2020,02,09,11,08,0.30
2020,02,09,11,09,1.00
2020,02,09,11,10,0.40
2020,02,09,11,11,2.10
2020,02,09,11,12,1.70
2020,02,09,11,13,0.60
2020,02,09,11,14,0.90
2020,02,09,11,15,1.40
2020,02,09,11,16,0.10
2020,02,09,11,17,1.20
2020,02,09,11,18,1.20
2020,02,09,11,19,2.10
2020,02,09,11,20,2.70
2020,02,09,11,21,1.90
2020,02,09,11,22,1.80
2020,02,09,11,23,2.30
2020,02,09,11,24,1.90
2020,02,09,11,25,2.40
2020,02,09,11,26,1.20
2020,02,09,11,27,0.90
2020,02,09,11,28,2.60
2020,02,09,11,29,1.10
2020,02,09,11,30,2.30
2020,02,09,11,31,5.40
2020,02,09,11,32,3.80
2020,02,09,11,33,0.80
2020,02,09,11,34,1.40
2020,02,09,11,35,1.00
2020,02,09,11,36,0.60
2020,02,09,11,37,0.90
2020,02,09,11,38,1.40
2020,02,09,11,39,2.40
2020,02,09,11,40,0.80
2020,02,09,11,41,0.00
2020,02,09,11,42,1.30
2020,02,09,11,43,1.00
2020,02,09,11,44,0.20
2020,02,09,11,45,0.10
2020,02,09,11,46,1.00
2020,02,09,11,47,0.80
2020,02,09,11,48,1.10
2020,02,09,11,49,1.50
2020,02,09,11,50,0.30
2020,02,09,11,51,1.00
2020,02,09,11,52,1.20
2020,02,09,11,53,0.60
2020,02,09,11,54,1.20
2020,02,09,11,55,0.30
2020,02,09,11,56,3.10
2020,02,09,11,57,2.00
2020,02,09,11,58,0.70
2020,02,09,11,59,0.80
2020,02,09,12,00,1.90
2020,02,09,12,01,0.60
2020,02,09,12,02,0.00
2020,02,09,12,03,1.40
2020,02,09,12,04,1.70
2020,02,09,12,05,0.20
2020,02,09,12,06,1.80
2020,02,09,12,07,1.50
2020,02,09,12,08,2.20
2020,02,09,12,09,1.10
2020,02,09,12,10,0.40
2020,02,09,12,11,1.40
2020,02,09,12,12,0.70
2020,02,09,12,13,1.50
2020,02,09,12,14,4.20
2020,02,09,12,15,3.90
2020,02,09,12,16,2.30
2020,02,09,12,17,4.40
2020,02,09,12,18,4.70
2020,02,09,12,19,2.00
2020,02,09,12,20,1.10
2020,02,09,12,21,4.10
2020,02,09,12,22,4.70
2020,02,09,12,23,4.30
2020,02,09,12,24,3.40
2020,02,09,12,25,3.50
2020,02,09,12,26,1.50
2020,02,09,12,27,3.10
2020,02,09,12,28,1.00
2020,02,09,12,29,1.50
2020,02,09,12,30,3.80
2020,02,09,12,31,0.60
2020,02,09,12,32,3.00
2020,02,09,12,33,3.10
2020,02,09,12,34,1.90
2020,02,09,12,35,1.10
2020,02,09,12,36,1.90
2020,02,09,12,37,3.50
2020,02,09,12,38,1.50
2020,02,09,12,39,4.10
2020,02,09,12,40,2.30
2020,02,09,12,41,4.40
2020,02,09,12,42,3.90
2020,02,09,12,43,3.50
2020,02,09,12,44,1.90
2020,02,09,12,45,2.00
2020,02,09,12,46,1.10
2020,02,09,12,47,3.60
2020,02,09,12,48,1.50
2020,02,09,12,49,1.90
2020,02,09,12,50,2.10
2020,02,09,12,51,2.10
2020,02,09,12,52,1.70
2020,02,09,12,53,1.40
2020,02,09,12,54,2.30
2020,02,09,12,55,2.80
2020,02,09,12,56,2.10
2020,02,09,12,57,3.00
2020,02,09,12,58,1.20
2020,02,09,12,59,1.50
2020,02,09,13,00,1.90
2020,02,09,13,01,3.80
2020,02,09,13,02,6.00
2020,02,09,13,03,2.90
2020,02,09,13,04,1.80
2020,02,09,13,05,4.00
2020,02,09,13,06,3.80
2020,02,09,13,07,5.80
2020,02,09,13,08,4.20
2020,02,09,13,09,3.00
2020,02,09,13,10,5.80
2020,02,09,13,11,3.70
2020,02,09,13,12,4.10
2020,02,09,13,13,3.00
2020,02,09,13,14,3.30
2020,02,09,13,15,4.10
2020,02,09,13,16,4.80
2020,02,09,13,17,5.30
2020,02,09,13,18,3.30
2020,02,09,13,19,3.00
2020,02,09,13,20,4.00
2020,02,09,13,21,3.90
2020,02,09,13,22,5.30
2020,02,09,13,23,0.80
2020,02,09,13,24,0.00
2020,02,09,13,25,1.30
2020,02,09,13,26,1.70
2020,02,09,13,27,3.20
2020,02,09,13,28,0.20
2020,02,09,13,29,1.80
2020,02,09,13,30,4.40
2020,02,09,13,31,6.50
2020,02,09,13,32,6.50
2020,02,09,13,33,4.40
2020,02,09,13,34,4.10
2020,02,09,13,35,3.80
2020,02,09,13,36,2.30
2020,02,09,13,37,1.20
2020,02,09,13,38,5.10
2020,02,09,13,39,4.90
2020,02,09,13,40,5.30
2020,02,09,13,41,1.70
2020,02,09,13,42,0.10
2020,02,09,13,43,0.00
2020,02,09,13,44,2.60
2020,02,09,13,45,1.00
2020,02,09,13,46,0.60
2020,02,09,13,47,3.00
2020,02,09,13,48,2.70
2020,02,09,13,49,2.10
2020,02,09,13,50,0.00
2020,02,09,13,51,0.10
2020,02,09,13,52,1.60
2020,02,09,13,53,5.70
2020,02,09,13,54,5.80
2020,02,09,13,55,4.80
2020,02,09,13,56,1.70
2020,02,09,13,57,0.90
2020,02,09,13,58,7.30
2020,02,09,13,59,6.20
2020,02,09,14,00,4.70
2020,02,09,14,01,6.70
2020,02,09,14,02,4.40
2020,02,09,14,03,6.40
2020,02,09,14,04,1.90
2020,02,09,14,05,2.30
2020,02,09,14,06,3.10
2020,02,09,14,07,9.30
2020,02,09,14,08,4.60
2020,02,09,14,09,8.10
2020,02,09,14,10,8.30
2020,02,09,14,11,6.50
2020,02,09,14,12,9.50
2020,02,09,14,13,8.10
2020,02,09,14,14,8.10
2020,02,09,14,15,6.60
2020,02,09,14,16,8.80
2020,02,09,14,17,10.00
2020,02,09,14,18,8.90
2020,02,09,14,19,12.00
2020,02,09,14,20,6.40
2020,02,09,14,21,5.80
2020,02,09,14,22,10.70
2020,02,09,14,23,10.90
2020,02,09,14,24,9.60
2020,02,09,14,25,7.60
2020,02,09,14,26,8.40
2020,02,09,14,27,11.30
2020,02,09,14,28,7.30
2020,02,09,14,29,2.80
2020,02,09,14,30,10.70
2020,02,09,14,31,14.70
2020,02,09,14,32,11.70
2020,02,09,14,33,14.30
2020,02,09,14,34,10.70
2020,02,09,14,35,7.10
2020,02,09,14,36,9.30
2020,02,09,14,37,5.60
2020,02,09,14,38,6.00
2020,02,09,14,39,9.40
2020,02,09,14,40,6.60
2020,02,09,14,41,4.30
2020,02,09,14,42,9.30
2020,02,09,14,43,10.10
2020,02,09,14,44,11.60
2020,02,09,14,45,9.60
2020,02,09,14,46,6.70
2020,02,09,14,47,7.20
2020,02,09,14,48,8.40
2020,02,09,14,49,6.60
2020,02,09,14,50,8.70
2020,02,09,14,51,8.40
2020,02,09,14,52,4.70
2020,02,09,14,53,8.40
2020,02,09,14,54,7.50
2020,02,09,14,55,11.00
2020,02,09,14,56,9.00
2020,02,09,14,57,10.90
2020,02,09,14,58,9.20
2020,02,09,14,59,9.00
2020,02,09,15,00,9.80
2020,02,09,15,01,3.50
2020,02,09,15,02,6.00
2020,02,09,15,03,11.80
2020,02,09,15,04,10.90
2020,02,09,15,05,9.50
2020,02,09,15,06,9.50
2020,02,09,15,07,9.30
2020,02,09,15,08,11.00
2020,02,09,15,09,9.20
2020,02,09,15,10,8.40
2020,02,09,15,11,5.30
2020,02,09,15,12,14.00
2020,02,09,15,13,12.30
2020,02,09,15,14,9.50
2020,02,09,15,15,9.90
2020,02,09,15,16,11.40
2020,02,09,15,17,7.40
2020,02,09,15,18,9.90
2020,02,09,15,19,8.40
2020,02,09,15,20,7.10
2020,02,09,15,21,11.30
2020,02,09,15,22,9.40
2020,02,09,15,23,13.20
2020,02,09,15,24,8.40
2020,02,09,15,25,4.20
2020,02,09,15,26,3.10
2020,02,09,15,27,9.50
2020,02,09,15,28,11.50
2020,02,09,15,29,9.80
2020,02,09,15,30,7.80
2020,02,09,15,31,8.50
2020,02,09,15,32,11.40
2020,02,09,15,33,11.80
2020,02,09,15,34,11.60
2020,02,09,15,35,8.60
2020,02,09,15,36,10.50
2020,02,09,15,37,7.60
2020,02,09,15,38,6.90
2020,02,09,15,39,7.90
2020,02,09,15,40,6.00
2020,02,09,15,41,7.30
2020,02,09,15,42,8.60
2020,02,09,15,43,6.90
2020,02,09,15,44,7.40
2020,02,09,15,45,5.80
2020,02,09,15,46,5.80
2020,02,09,15,47,6.50
2020,02,09,15,48,5.10
2020,02,09,15,49,6.30
2020,02,09,15,50,6.80
2020,02,09,15,51,5.30
2020,02,09,15,52,3.90
2020,02,09,15,53,6.50
2020,02,09,15,54,7.00
2020,02,09,15,55,4.10
2020,02,09,15,56,4.70
2020,02,09,15,57,2.20
2020,02,09,15,58,4.20
2020,02,09,15,59,4.30
2020,02,09,16,00,6.80
2020,02,09,16,01,6.70
2020,02,09,16,02,6.50
2020,02,09,16,03,3.40
2020,02,09,16,04,3.90
2020,02,09,16,05,3.90
2020,02,09,16,06,2.10
2020,02,09,16,07,2.80
2020,02,09,16,08,2.00
2020,02,09,16,09,4.80
2020,02,09,16,10,5.00
2020,02,09,16,11,4.80
2020,02,09,16,12,4.40
2020,02,09,16,13,5.20
2020,02,09,16,14,4.40
2020,02,09,16,15,5.70
2020,02,09,16,16,4.80
2020,02,09,16,17,3.70
2020,02,09,16,18,4.60
2020,02,09,16,19,4.30
2020,02,09,16,20,1.40
2020,02,09,16,21,3.10
2020,02,09,16,22,4.70
2020,02,09,16,23,2.90
2020,02,09,16,24,5.70
2020,02,09,16,25,2.30
2020,02,09,16,26,3.10
2020,02,09,16,27,6.30
2020,02,09,16,28,4.40
2020,02,09,16,29,4.70
2020,02,09,16,30,2.10
2020,02,09,16,31,1.40
2020,02,09,16,32,3.40
2020,02,09,16,33,4.30
2020,02,09,16,34,4.90
2020,02,09,16,35,3.40
2020,02,09,16,36,5.40
2020,02,09,16,37,1.70
2020,02,09,16,38,4.70
2020,02,09,16,39,1.30
2020,02,09,16,40,1.70
2020,02,09,16,41,1.10
2020,02,09,16,42,3.70
2020,02,09,16,43,3.50
2020,02,09,16,44,3.70
2020,02,09,16,45,3.10
2020,02,09,16,46,1.60
2020,02,09,16,47,2.30
2020,02,09,16,48,1.90
2020,02,09,16,49,3.20
2020,02,09,16,50,0.40
2020,02,09,16,51,1.20
2020,02,09,16,52,2.90
2020,02,09,16,53,0.50
2020,02,09,16,54,0.70
2020,02,09,16,55,0.90
2020,02,09,16,56,0.80
2020,02,09,16,57,3.00
2020,02,09,16,58,0.10
2020,02,09,16,59,3.00
2020,02,09,17,00,1.60
2020,02,09,17,01,0.10
2020,02,09,17,02,0.10
2020,02,09,17,03,1.70
2020,02,09,17,04,0.20
2020,02,09,17,05,0.00
2020,02,09,17,06,0.10
2020,02,09,17,07,0.20
2020,02,09,17,08,1.30
2020,02,09,17,09,0.50
2020,02,09,17,10,0.00
2020,02,09,17,11,0.00
2020,02,09,17,12,0.00
2020,02,09,17,13,0.00
2020,02,09,17,14,0.00
2020,02,09,17,15,0.00
2020,02,09,17,16,0.00
2020,02,09,17,17,0.00
2020,02,09,17,18,0.00
2020,02,09,17,19,0.00
2020,02,09,17,20,0.10
2020,02,09,17,21,0.30
2020,02,09,17,22,0.40
2020,02,09,17,23,0.00
2020,02,09,17,24,0.10
2020,02,09,17,25,0.10
2020,02,09,17,26,0.00
2020,02,09,17,27,0.00
2020,02,09,17,28,0.00
2020,02,09,17,29,0.00
2020,02,09,17,30,0.20
2020,02,09,17,31,0.00
2020,02,09,17,32,0.00
2020,02,09,17,33,0.00
2020,02,09,17,34,0.00
2020,02,09,17,35,0.00
2020,02,09,17,36,0.00
2020,02,09,17,37,1.10
2020,02,09,17,38,0.10
2020,02,09,17,39,0.00
2020,02,09,17,40,0.20
2020,02,09,17,41,0.00
2020,02,09,17,42,0.00
2020,02,09,17,43,0.10
2020,02,09,17,44,0.80
2020,02,09,17,45,0.30
2020,02,09,17,46,0.00
2020,02,09,17,47,0.00
2020,02,09,17,48,0.00
2020,02,09,17,49,0.00
2020,02,09,17,50,0.00
2020,02,09,17,51,0.00
2020,02,09,17,52,0.00
2020,02,09,17,53,0.00
2020,02,09,17,54,0.00
2020,02,09,17,55,0.00
2020,02,09,17,56,0.00
2020,02,09,17,57,0.00
2020,02,09,17,58,0.00
2020,02,09,17,59,0.00
2020,02,09,18,00,0.00
2020,02,09,18,01,0.00
2020,02,09,18,02,0.00
2020,02,09,18,03,0.00
2020,02,09,18,04,0.00
2020,02,09,18,05,0.00
2020,02,09,18,06,0.00
2020,02,09,18,07,0.00
2020,02,09,18,08,0.00
2020,02,09,18,09,0.00
2020,02,09,18,10,0.00
2020,02,09,18,11,0.00
2020,02,09,18,12,0.00
2020,02,09,18,13,0.00
2020,02,09,18,14,0.00
2020,02,09,18,15,0.00
2020,02,09,18,16,0.00
2020,02,09,18,17,0.00
2020,02,09,18,18,0.00
2020,02,09,18,19,0.20
2020,02,09,18,20,3.00
2020,02,09,18,21,2.00
2020,02,09,18,22,1.00
2020,02,09,18,23,0.20
2020,02,09,18,24,0.40
2020,02,09,18,25,1.40
2020,02,09,18,26,0.00
2020,02,09,18,27,0.00
2020,02,09,18,28,0.80
2020,02,09,18,29,0.90
2020,02,09,18,30,0.00
2020,02,09,18,31,0.10
2020,02,09,18,32,0.10
2020,02,09,18,33,0.00
2020,02,09,18,34,0.00
2020,02,09,18,35,0.00
2020,02,09,18,36,0.00
2020,02,09,18,37,0.00
2020,02,09,18,38,0.00
2020,02,09,18,39,0.00
2020,02,09,18,40,0.00
2020,02,09,18,41,0.00
2020,02,09,18,42,0.00
2020,02,09,18,43,0.50
2020,02,09,18,44,1.60
2020,02,09,18,45,2.70
2020,02,09,18,46,3.80
2020,02,09,18,47,1.60
2020,02,09,18,48,0.50
2020,02,09,18,49,0.00
2020,02,09,18,50,0.30
2020,02,09,18,51,1.30
2020,02,09,18,52,0.20
2020,02,09,18,53,0.10
2020,02,09,18,54,0.00
2020,02,09,18,55,0.00
2020,02,09,18,56,0.00
2020,02,09,18,57,0.00
2020,02,09,18,58,0.00
2020,02,09,18,59,0.20
2020,02,09,19,00,0.00
2020,02,09,19,01,1.00
2020,02,09,19,02,0.60
2020,02,09,19,03,0.10
2020,02,09,19,04,0.00
2020,02,09,19,05,0.20
2020,02,09,19,06,0.30
2020,02,09,19,07,0.30
2020,02,09,19,08,0.20
2020,02,09,19,09,0.00
2020,02,09,19,10,0.10
2020,02,09,19,11,0.00
2020,02,09,19,12,0.20
2020,02,09,19,13,1.50
2020,02,09,19,14,1.20
2020,02,09,19,15,2.70
2020,02,09,19,16,4.20
2020,02,09,19,17,1.00
2020,02,09,19,18,0.80
2020,02,09,19,19,1.10
2020,02,09,19,20,0.30
2020,02,09,19,21,0.10
2020,02,09,19,22,0.30
2020,02,09,19,23,1.20
2020,02,09,19,24,0.70
2020,02,09,19,25,0.00
2020,02,09,19,26,0.10
2020,02,09,19,27,0.80
2020,02,09,19,28,0.00
2020,02,09,19,29,0.00
2020,02,09,19,30,0.00
2020,02,09,19,31,0.00
2020,02,09,19,32,0.00
2020,02,09,19,33,0.00
2020,02,09,19,34,0.00
2020,02,09,19,35,0.00
2020,02,09,19,36,0.00
2020,02,09,19,37,0.00
2020,02,09,19,38,0.20
2020,02,09,19,39,0.00
2020,02,09,19,40,0.00
2020,02,09,19,41,0.00
2020,02,09,19,42,0.00
2020,02,09,19,43,0.00
2020,02,09,19,44,0.10
2020,02,09,19,45,0.00
2020,02,09,19,46,0.10
2020,02,09,19,47,0.00
2020,02,09,19,48,0.00
2020,02,09,19,49,0.00
2020,02,09,19,50,0.00
2020,02,09,19,51,0.00
2020,02,09,19,52,0.10
2020,02,09,19,53,0.10
2020,02,09,19,54,0.00
2020,02,09,19,55,0.10
2020,02,09,19,56,0.20
2020,02,09,19,57,0.00
2020,02,09,19,58,0.00
2020,02,09,19,59,0.00
2020,02,09,20,00,0.00
2020,02,09,20,01,0.00
2020,02,09,20,02,0.00
2020,02,09,20,03,0.10
2020,02,09,20,04,0.30
2020,02,09,20,05,0.40
2020,02,09,20,06,0.10
2020,02,09,20,07,0.00
2020,02,09,20,08,0.00
2020,02,09,20,09,0.00
2020,02,09,20,10,0.00
2020,02,09,20,11,0.00
2020,02,09,20,12,0.00
2020,02,09,20,13,0.20
2020,02,09,20,14,0.00
2020,02,09,20,15,0.00
2020,02,09,20,16,0.00
2020,02,09,20,17,0.00
2020,02,09,20,18,0.00
2020,02,09,20,19,0.00
2020,02,09,20,20,0.00
2020,02,09,20,21,0.00
2020,02,09,20,22,0.00
2020,02,09,20,23,0.00
2020,02,09,20,24,0.00
2020,02,09,20,25,0.00
2020,02,09,20,26,0.00
2020,02,09,20,27,0.00
2020,02,09,20,28,0.00
2020,02,09,20,29,0.00
2020,02,09,20,30,0.00
2020,02,09,20,31,0.00
2020,02,09,20,32,0.00
2020,02,09,20,33,0.00
2020,02,09,20,34,0.00
2020,02,09,20,35,0.00
2020,02,09,20,36,0.00
2020,02,09,20,37,0.00
2020,02,09,20,38,0.00
2020,02,09,20,39,0.00
2020,02,09,20,40,0.00
2020,02,09,20,41,0.00
2020,02,09,20,42,0.00
2020,02,09,20,43,0.00
2020,02,09,20,44,0.00
2020,02,09,20,45,0.00
2020,02,09,20,46,0.00
2020,02,09,20,47,0.00
2020,02,09,20,48,0.00
2020,02,09,20,49,0.00
2020,02,09,20,50,0.10
2020,02,09,20,51,0.00
2020,02,09,20,52,0.00
2020,02,09,20,53,0.00
2020,02,09,20,54,0.00
2020,02,09,20,55,0.00
2020,02,09,20,56,0.00
2020,02,09,20,57,0.00
2020,02,09,20,58,0.00
2020,02,09,20,59,0.00
2020,02,09,21,00,0.00
2020,02,09,21,01,0.00
2020,02,09,21,02,0.00
2020,02,09,21,03,0.00
2020,02,09,21,04,0.00
2020,02,09,21,05,0.00
2020,02,09,21,06,0.00
2020,02,09,21,07,0.00
2020,02,09,21,08,0.00
2020,02,09,21,09,0.00
2020,02,09,21,10,0.00
2020,02,09,21,11,0.00
2020,02,09,21,12,0.00
2020,02,09,21,13,0.00
2020,02,09,21,14,0.00
2020,02,09,21,15,0.00
2020,02,09,21,16,0.00
2020,02,09,21,17,0.00
2020,02,09,21,18,0.00
2020,02,09,21,19,0.00
2020,02,09,21,20,0.00
2020,02,09,21,21,0.00
2020,02,09,21,22,0.00
2020,02,09,21,23,0.00
2020,02,09,21,24,0.00
2020,02,09,21,25,0.00
2020,02,09,21,26,0.00
2020,02,09,21,27,0.00
2020,02,09,21,28,0.00
2020,02,09,21,29,0.00
2020,02,09,21,30,0.00
2020,02,09,21,31,0.00
2020,02,09,21,32,0.00
2020,02,09,21,33,0.00
2020,02,09,21,34,0.00
2020,02,09,21,35,0.00
2020,02,09,21,36,0.00
2020,02,09,21,37,0.00
2020,02,09,21,38,0.00
2020,02,09,21,39,0.00
2020,02,09,21,40,0.00
2020,02,09,21,41,0.00
2020,02,09,21,42,0.00
2020,02,09,21,43,0.00
2020,02,09,21,44,0.00
2020,02,09,21,45,0.00
2020,02,09,21,46,0.00
2020,02,09,21,47,0.00
2020,02,09,21,48,0.00
2020,02,09,21,49,0.00
2020,02,09,21,50,0.00
2020,02,09,21,51,0.00
2020,02,09,21,52,0.00
2020,02,09,21,53,0.00
2020,02,09,21,54,0.00
2020,02,09,21,55,0.00
2020,02,09,21,56,0.00
2020,02,09,21,57,0.00
2020,02,09,21,58,0.00
2020,02,09,21,59,0.00
2020,02,09,22,00,0.00
2020,02,09,22,01,0.00
2020,02,09,22,02,0.00
2020,02,09,22,03,0.00
2020,02,09,22,04,0.00
2020,02,09,22,05,0.00
2020,02,09,22,06,0.00
2020,02,09,22,07,0.00
2020,02,09,22,08,0.00
2020,02,09,22,09,0.00
2020,02,09,22,10,0.00
2020,02,09,22,11,0.00
2020,02,09,22,12,0.00
2020,02,09,22,13,0.00
2020,02,09,22,14,0.00
2020,02,09,22,15,0.00
2020,02,09,22,16,0.00
2020,02,09,22,17,0.00
2020,02,09,22,18,0.00